Meath Environmental Platform

Observations for Trim Patrick St

Time AQI Temp °C Hum % Pres Pa CO μg/m³ H₂S μg/m³ NO μg/m³ NO₂ μg/m³ O₃ μg/m³ SO₂ μg/m³ PM1 μg/m³ PM2.5 μg/m³ PM10 μg/m³
Wednesday 26 August 2026
18:06 2 32.2 41 69,248 0 1.29 2.06 23.52 148 16.78 5.43 11.71 12.88
18:04 2 32.3 40 69,256 0 0 2.1 27.11 112.13 14.31 7.14 14.06 15.47
18:03 2 32.4 40 69,230 0 0 2.02 26.46 109.61 15.81 6.29 14.13 15.54
18:02 2 32.4 40 69,254 0 0 1.95 25.43 119.33 16.33 8.86 16.5 18.15
18:01 2 32.5 40 69,258 0 0.45 1.95 24.32 169.94 16.75 6.29 11.77 12.95
18:00 2 32.5 40 69,264 0 0.37 1.9 21.83 91.53 16.72 8.86 14.92 16.41
17:59 2 32.5 40 69,269 0 5.53 1.84 32.11 191.64 15.93 8.86 15.65 17.21
17:58 2 32.5 40 69,280 0 0 1.98 20.62 143.49 17.43 8 14.87 16.36
17:55 2 32.5 40 69,276 0 0 1.97 27.07 139.67 15.47 10.57 18 19.8
17:54 2 32.5 40 69,284 0 0 1.99 16.4 111.74 17.65 8 14.93 16.42
17:53 2 32.6 39 69,302 0 0 1.97 21.87 133.13 16.07 8.86 16.55 18.2
17:52 2 32.7 40 69,290 0 0 2.07 14.65 117.24 18.06 7.14 14.12 15.53
17:51 2 32.9 38 69,304 0 0 2.12 27.06 207.9 16.42 7.14 13.44 14.78
17:50 2 33.1 39 69,294 0 0 2.36 13.08 105.46 18.79 7.14 13.37 14.7
17:49 2 33.3 38 69,314 0 0 2.28 14.36 142.79 18.58 8.86 15.08 16.59
17:47 2 33.6 41 69,334 0 0 2.43 12.09 80.14 19.08 8.86 15.61 17.17
17:46 2 33.6 38 69,357 0 0 2.21 22.43 104.43 16.59 8 14.29 15.72
17:45 2 33.6 38 69,353 0 0 2.19 14.29 93.97 18.86 5.43 11.91 13.1
17:44 2 33.6 38 69,351 0 0 2.26 26.61 127.39 17 6.29 13.49 14.84
17:43 2 33.6 39 69,347 0 0 2.44 18.15 119.86 17.92 5.43 11.81 12.99